Flag for Portugal Weather past 2 weeks in Funchal, Madeira, Portugal

Now
73 °F

Passing clouds.


Feels Like: 75 °F
Forecast: 73 / 80 °F
Wind: 1 mph from North

Location: Aeroporto Da Madeira

Current Time: Aug 31, 2014 at 6:01:51 AM

Latest Report: Aug 31, 2014 at 5:00 AM


Visibility: N/A

Pressure: 30.07 "Hg

Humidity: 74%

Dew point: 64 °F

Location of FunchalLocation

Historic Weather in Funchal — Graph

°F

Funchal temperature yesterday

Maximum temperature yesterday: 79 °F (at 12:00 PM)
Minimum temperature yesterday: 68 °F (at 4:30 AM)
Average temperature yesterday: 74 °F

Past Weeks' High & Low Weather Summary

 TemperatureHumidityPressure
High84 °F (Aug 28, 4:00 PM)83% (Aug 28, 8:30 PM)30.18 "Hg (Aug 28, 8:30 PM)
Low66 °F (Aug 29, 7:00 AM)45% (Aug 28, 4:00 PM)29.98 "Hg (Aug 17, 4:30 PM)
Average74 °F66%30.11 "Hg
* Reported Aug 16 5:00 AM — Aug 31 5:00 AM, Funchal, Weather by CustomWeather, © 2014

Note: Actual official high and low records may vary slightly from our data, if they occured in-between our weather recording intervals... More about our weather records

Advertising

Funchal weather history for previous 24 hours

 ConditionsComfort  
Time TempWeatherWind HumidityBarometerVisibility
5:00 AM
Aug 31
73 °FPassing clouds.1 mph74%30.07 "HgN/A
4:30 AM73 °FPassing clouds.2 mph74%30.07 "HgN/A
4:00 AM73 °FPassing clouds.2 mph69%30.09 "HgN/A
3:30 AM73 °FPassing clouds.1 mph74%30.09 "HgN/A
3:00 AM73 °FPassing clouds.3 mph69%30.09 "HgN/A
2:30 AM75 °FPassing clouds.3 mph69%30.09 "HgN/A
2:00 AM75 °FPassing clouds.3 mph69%30.12 "HgN/A
1:30 AM75 °FPassing clouds.5 mph74%30.12 "HgN/A
1:00 AM75 °FPassing clouds.3 mph74%30.12 "HgN/A
12:30 AM73 °FPassing clouds.2 mph78%30.12 "HgN/A
12:00 AM75 °FPassing clouds.2 mph74%30.12 "HgN/A
11:30 PM
Aug 30
75 °FPassing clouds.2 mph74%30.15 "HgN/A
11:00 PM75 °FPassing clouds.2 mph74%30.15 "HgN/A
10:30 PM73 °FPassing clouds.3 mph83%30.15 "HgN/A
10:00 PM75 °FPassing clouds.6 mph74%30.15 "HgN/A
9:30 PM75 °FPassing clouds.5 mph74%30.12 "HgN/A
9:00 PM75 °FPassing clouds.6 mph74%30.12 "HgN/A
8:30 PM75 °FPassing clouds.5 mph74%30.12 "HgN/A
8:00 PM77 °FPassing clouds.6 mph69%30.12 "HgN/A
7:30 PM77 °FPassing clouds.6 mph69%30.12 "HgN/A
7:00 PM77 °FPassing clouds.6 mph69%30.12 "HgN/A
6:00 PM77 °FPassing clouds.5 mph74%30.12 "HgN/A
5:30 PM77 °FPassing clouds.6 mph69%30.12 "HgN/A
5:00 PM79 °FPassing clouds.6 mph70%30.12 "HgN/A
4:30 PM77 °FPassing clouds.8 mph74%30.12 "HgN/A
4:00 PM77 °FPassing clouds.9 mph74%30.12 "HgN/A
3:30 PM77 °FPassing clouds.9 mph74%30.15 "HgN/A
3:00 PM77 °FPassing clouds.8 mph69%30.15 "HgN/A
2:30 PM77 °FPassing clouds.8 mph74%30.15 "HgN/A
2:00 PM77 °FPassing clouds.9 mph69%30.15 "HgN/A
1:00 PM79 °FPassing clouds.8 mph65%30.15 "HgN/A
12:30 PM79 °FPassing clouds.8 mph65%30.18 "HgN/A
12:00 PM79 °FPassing clouds.6 mph65%30.18 "HgN/A
11:30 AM77 °FPassing clouds.8 mph69%30.18 "HgN/A
11:00 AM77 °FPassing clouds.6 mph65%30.15 "HgN/A
10:30 AM77 °FPassing clouds.6 mph69%30.15 "HgN/A
10:00 AM75 °FPassing clouds.6 mph74%30.15 "HgN/A
9:30 AM75 °FPassing clouds.7 mph74%30.15 "HgN/A
9:00 AM72 °FPassing clouds.6 mph78%30.15 "HgN/A
8:30 AM72 °FPassing clouds.6 mph78%30.12 "HgN/A
8:00 AM70 °FPassing clouds.1 mph78%30.12 "HgN/A
7:30 AM70 °FPassing clouds.2 mph78%30.12 "HgN/A
7:00 AM70 °FPassing clouds.2 mph78%30.12 "HgN/A
6:30 AM70 °FPassing clouds.1 mph78%30.12 "HgN/A
6:00 AM68 °FPassing clouds.1 mph78%30.12 "HgN/A
Weather by CustomWeather, © 2014

See weather overviewHow to use our weather pages